Multibeam Report for TN183


Ship Name: Thomas G. Thompson
Chief Scientist: Delaney, John
University of Washington
Source Organization: Marine Geoscience Data System (MGDS)
Start Date: 2005-09-02
End Date: 2005-10-04


View ISO Metadata

Visit the full NCEI Bathymetry Viewer


Multibeam Bathymetry

Cruise Details

Project: Visually Integrated Science for Interactive Ocean
Instrument: Simrad EM300

Data Quality

Number of Files: 60
Number of Records: 48761
BATHYMETRY DATA Quantity Percentage
Number of Beams 6582735 100%
Number of Good Beams 6384521 96.99%
Number of Zero Beams 198214 3.01%
Number of Flagged Beams 0 0%

Navigation Totals

Total Time: 50.4601 hours
Total Track Length: 933.4551 km
Average Speed: 18.499 km/hr (9.9887 knots)

Cruise Bounds

Northern Extent: 49.300076
Southern Extent: 47.78221
Western Extent: -129.11664
Eastern Extent: -124.72147

Limits

Minimum Sonar Depth 4.4 Maximum Sonar Depth 7.65
Minimum Altitude 0 Maximum Altitude 2762.3201
Minimum Depth 85.26 Maximum Depth 3061.3101

File Information

Full Resolution Bathymetry as collected (raw): 58

Files File Size Description
0001_20050902_160512p.mb56.gz 6.65MB Simrad multibeam vendor format
0001_20050907_072402p.mb56.gz 6.80MB Simrad multibeam vendor format
0001_20050913_044149p.mb56.gz 6.76MB Simrad multibeam vendor format
0001_20050918_051625p.mb56.gz 6.32MB Simrad multibeam vendor format
0001_20051003_125028p.mb56.gz 6.84MB Simrad multibeam vendor format
0001_20051004_025441p.mb56.gz 36.82MB Simrad multibeam vendor format
0002_20050902_170512p.mb56.gz 6.73MB Simrad multibeam vendor format
0002_20050907_082402p.mb56.gz 6.50MB Simrad multibeam vendor format
0002_20050913_054149p.mb56.gz 6.63MB Simrad multibeam vendor format
0002_20050918_061625p.mb56.gz 6.27MB Simrad multibeam vendor format
0002_20051003_135028p.mb56.gz 6.77MB Simrad multibeam vendor format
0002_20051004_035441p.mb56.gz 34.38MB Simrad multibeam vendor format
0003_20050902_180512p.mb56.gz 6.76MB Simrad multibeam vendor format
0003_20050907_092402p.mb56.gz 6.41MB Simrad multibeam vendor format
0003_20050913_064150p.mb56.gz 6.79MB Simrad multibeam vendor format
0003_20050918_071625p.mb56.gz 6.25MB Simrad multibeam vendor format
0003_20051003_145028p.mb56.gz 6.78MB Simrad multibeam vendor format
0003_20051004_045441p.mb56.gz 29.91MB Simrad multibeam vendor format
0004_20050902_190512p.mb56.gz 6.83MB Simrad multibeam vendor format
0004_20050907_102402p.mb56.gz 6.49MB Simrad multibeam vendor format
0004_20050913_074150p.mb56.gz 7.13MB Simrad multibeam vendor format
0004_20050918_081625p.mb56.gz 6.31MB Simrad multibeam vendor format
0004_20051003_155028p.mb56.gz 6.78MB Simrad multibeam vendor format
0004_20051004_055442p.mb56.gz 30.82MB Simrad multibeam vendor format
0005_20050902_200512p.mb56.gz 6.71MB Simrad multibeam vendor format
0005_20050907_112402p.mb56.gz 1.12MB Simrad multibeam vendor format
0005_20050913_084150p.mb56.gz 6.98MB Simrad multibeam vendor format
0005_20050918_091625p.mb56.gz 6.40MB Simrad multibeam vendor format
0005_20051003_165028p.mb56.gz 6.66MB Simrad multibeam vendor format
0005_20051004_065442p.mb56.gz 7.11MB Simrad multibeam vendor format
0006_20050902_210512p.mb56.gz 6.62MB Simrad multibeam vendor format
0006_20050907_113402p.mb56.gz 6.69MB Simrad multibeam vendor format
0006_20050913_094150p.mb56.gz 6.85MB Simrad multibeam vendor format
0006_20050918_101625p.mb56.gz 6.27MB Simrad multibeam vendor format
0006_20051003_175028p.mb56.gz 6.49MB Simrad multibeam vendor format
0007_20050902_220512p.mb56.gz 6.60MB Simrad multibeam vendor format
0007_20050907_123402p.mb56.gz 5.30MB Simrad multibeam vendor format
0007_20050913_104150p.mb56.gz 6.85MB Simrad multibeam vendor format
0007_20050918_111625p.mb56.gz 6.27MB Simrad multibeam vendor format
0007_20051003_185028p.mb56.gz 6.52MB Simrad multibeam vendor format
0008_20050902_230512p.mb56.gz 6.60MB Simrad multibeam vendor format
0008_20050913_114150p.mb56.gz 6.67MB Simrad multibeam vendor format
0008_20050918_121427p.mb56.gz 6.53MB Simrad multibeam vendor format
0008_20051003_195029p.mb56.gz 6.46MB Simrad multibeam vendor format
0009_20050903_000512p.mb56.gz 5.24MB Simrad multibeam vendor format
0009_20050918_131427p.mb56.gz 6.93MB Simrad multibeam vendor format
0009_20051003_205029p.mb56.gz 5.15MB Simrad multibeam vendor format
0010_20050903_022141p.mb56.gz 6.80MB Simrad multibeam vendor format
0010_20050918_141427p.mb56.gz 279.7KB Simrad multibeam vendor format
0011_20050903_032141p.mb56.gz 5.35MB Simrad multibeam vendor format
0012_20050903_042143p.mb56.gz 24.1KB Simrad multibeam vendor format
0013_20050903_042213p.mb56.gz 90.0KB Simrad multibeam vendor format
0014_20050903_052011p.mb56.gz 1.33MB Simrad multibeam vendor format
0015_20050903_054800p.mb56.gz 1.29MB Simrad multibeam vendor format
0016_20050904_083906p.mb56.gz 6.93MB Simrad multibeam vendor format
0017_20050904_093907p.mb56.gz 6.74MB Simrad multibeam vendor format
0018_20050904_103907p.mb56.gz 7.00MB Simrad multibeam vendor format
0019_20050906_115259p.mb56.gz 4.21MB Simrad multibeam vendor format

Metadata Files: 2

Files File Size Description
TN183_Multibeam.xml NGDC created ISO metadata
TN183.xml 24.6KB XML metadata file